,,,PA_Meas_PMT16A,,PR_Meas_QMR101_102,,RH_Meas_QMH101,,SR_Meas_QMS101,,TA_Meas_QMH101,,GenWind,,GenWind,
date,time,status,PA,status,PR,status,RH,status,SR,status,TA,status,DirAvg,status,SpdAvg,
2010-03-16, 00:00:04,VALID,1003.83,VALID,0,VALID,86.6107,VALID,0,VALID,26.2154,VALID,301,VALID,0.301562,
2010-03-16, 00:01:04,VALID,1003.84,VALID,0,VALID,86.7251,VALID,0,VALID,26.2154,VALID,301,VALID,0.295703,
2010-03-16, 00:02:04,VALID,1003.8,VALID,0,VALID,86.7404,VALID,0,VALID,26.1745,VALID,269,VALID,0.422656,
2010-03-16, 00:03:04,VALID,1003.79,VALID,0,VALID,86.8472,VALID,0,VALID,26.1745,VALID,269,VALID,0.138672,
2010-03-16, 00:04:04,VALID,1003.75,VALID,0,VALID,86.8853,VALID,0,VALID,26.1765,VALID,269,VALID,0.131641,
2010-03-16, 00:05:04,VALID,1003.75,VALID,0,VALID,86.9387,VALID,0,VALID,26.157,VALID,273,VALID,0.346875,
2010-03-16, 00:06:04,VALID,1003.74,VALID,0,VALID,86.8319,VALID,0,VALID,26.1375,VALID,268,VALID,0.334766,
2010-03-16, 00:07:04,VALID,1003.73,VALID,0,VALID,86.8624,VALID,0,VALID,26.1375,VALID,274,VALID,0.409766,
2010-03-16, 00:08:04,VALID,1003.71,VALID,0,VALID,86.7861,VALID,0,VALID,26.12,VALID,341,VALID,0.480859,
2010-03-16, 00:09:04,VALID,1003.68,VALID,0,VALID,86.9998,VALID,0,VALID,26.0985,VALID,341,VALID,0.187109,
2010-03-16, 00:10:04,VALID,1003.65,VALID,0,VALID,86.9692,VALID,0,VALID,26.1005,VALID,348,VALID,0.491016,
2010-03-16, 00:11:04,VALID,1003.65,VALID,0,VALID,87.0455,VALID,0,VALID,26.0381,VALID,348,VALID,0.448438,
2010-03-16, 00:12:04,VALID,1003.63,VALID,0,VALID,87.2286,VALID,0,VALID,26.0596,VALID,348,VALID,0.45625,
2010-03-16, 00:13:04,VALID,1003.63,VALID,0,VALID,87.3736,VALID,0,VALID,26.0206,VALID,348,VALID,0.522656,
2010-03-16, 00:14:04,VALID,1003.58,VALID,0,VALID,87.3965,VALID,0,VALID,26.0012,VALID,348,VALID,0.484766,
2010-03-16, 00:15:04,VALID,1003.56,VALID,0,VALID,87.488,VALID,0.100563,VALID,25.9602,VALID,348,VALID,0.416406,
2010-03-16, 00:16:04,VALID,1003.51,VALID,0,VALID,87.6482,VALID,0,VALID,25.9622,VALID,348,VALID,0.392969,
2010-03-16, 00:17:04,VALID,1003.51,VALID,0,VALID,87.8466,VALID,0,VALID,25.9018,VALID,348,VALID,0.119531,
2010-03-16, 00:18:04,VALID,1003.48,VALID,0,VALID,87.9305,VALID,0,VALID,25.8823,VALID,348,VALID,0.113672,
2010-03-16, 00:19:04,VALID,1003.5,VALID,0,VALID,87.9839,VALID,0,VALID,25.8629,VALID,348,VALID,0.127734,
2010-03-16, 00:20:04,VALID,1003.49,VALID,0,VALID,88.022,VALID,0,VALID,25.8629,VALID,348,VALID,0.255469,
2010-03-16, 00:21:04,VALID,1003.5,VALID,0,VALID,88.1441,VALID,0.100563,VALID,25.8434,VALID,354,VALID,0.698047,
2010-03-16, 00:22:04,VALID,1003.5,VALID,0,VALID,88.1365,VALID,0,VALID,25.8629,VALID,345,VALID,0.782812,
2010-03-16, 00:23:04,VALID,1003.44,VALID,0,VALID,88.167,VALID,0,VALID,25.8843,VALID,343,VALID,0.478906,
2010-03-16, 00:24:04,VALID,1003.43,VALID,0,VALID,88.1212,VALID,0,VALID,25.8434,VALID,343,VALID,0.507031,
2010-03-16, 00:25:04,VALID,1003.39,VALID,0,VALID,88.1899,VALID,0.100563,VALID,25.8434,VALID,345,VALID,0.577734,
2010-03-16, 00:26:04,VALID,1003.41,VALID,0,VALID,88.2509,VALID,0,VALID,25.8239,VALID,346,VALID,0.530469,
2010-03-16, 00:27:04,VALID,1003.38,VALID,0,VALID,88.2661,VALID,0.100563,VALID,25.8239,VALID,345,VALID,0.753906,
2010-03-16, 00:28:04,VALID,1003.37,VALID,0,VALID,88.3195,VALID,0,VALID,25.8453,VALID,354,VALID,0.775391,
2010-03-16, 00:29:04,VALID,1003.36,VALID,0,VALID,88.3043,VALID,0.100563,VALID,25.8239,VALID,337,VALID,0.704297,
2010-03-16, 00:30:04,VALID,1003.39,VALID,0,VALID,88.3043,VALID,0,VALID,25.8239,VALID,340,VALID,0.608203,
2010-03-16, 00:31:04,VALID,1003.37,VALID,0,VALID,88.2738,VALID,0,VALID,25.8453,VALID,360,VALID,0.414844,
2010-03-16, 00:32:04,VALID,1003.39,VALID,0,VALID,88.3348,VALID,0,VALID,25.8648,VALID,2,VALID,0.297656,
2010-03-16, 00:33:04,VALID,1003.37,VALID,0,VALID,88.3195,VALID,0,VALID,25.8843,VALID,360,VALID,0.210156,
2010-03-16, 00:34:04,VALID,1003.39,VALID,0,VALID,88.3119,VALID,0,VALID,25.8629,VALID,340,VALID,0.6375,
2010-03-16, 00:35:04,VALID,1003.39,VALID,0,VALID,88.3501,VALID,0,VALID,25.8843,VALID,349,VALID,0.336719,
2010-03-16, 00:36:04,VALID,1003.36,VALID,0,VALID,88.2585,VALID,0,VALID,25.8843,VALID,349,VALID,0.701172,
2010-03-16, 00:37:04,VALID,1003.39,VALID,0,VALID,88.2738,VALID,0,VALID,25.9038,VALID,7,VALID,0.408203,
2010-03-16, 00:38:04,VALID,1003.4,VALID,0,VALID,88.3119,VALID,0,VALID,25.8843,VALID,346,VALID,0.735937,
2010-03-16, 00:39:04,VALID,1003.38,VALID,0,VALID,88.2051,VALID,0,VALID,25.8629,VALID,350,VALID,0.510938,
2010-03-16, 00:40:04,VALID,1003.38,VALID,0,VALID,88.2051,VALID,0,VALID,25.9057,VALID,353,VALID,0.519531,
2010-03-16, 00:41:04,VALID,1003.38,VALID,0,VALID,88.1059,VALID,0,VALID,25.8823,VALID,6,VALID,0.950391,
2010-03-16, 00:42:04,VALID,1003.36,VALID,0,VALID,88.0754,VALID,0,VALID,25.9232,VALID,7,VALID,0.985937,
2010-03-16, 00:43:04,VALID,1003.33,VALID,0,VALID,87.9457,VALID,0,VALID,25.9038,VALID,331,VALID,0.360547,
2010-03-16, 00:44:04,VALID,1003.29,VALID,0,VALID,87.9457,VALID,0,VALID,25.9038,VALID,350,VALID,0.719141,
2010-03-16, 00:45:04,VALID,1003.26,VALID,0,VALID,87.8923,VALID,0,VALID,25.8843,VALID,345,VALID,0.662891,
2010-03-16, 00:46:04,VALID,1003.28,VALID,0,VALID,87.961,VALID,0,VALID,25.8843,VALID,351,VALID,0.736328,
2010-03-16, 00:47:04,VALID,1003.25,VALID,0,VALID,87.9457,VALID,0,VALID,25.8863,VALID,357,VALID,0.504297,
2010-03-16, 00:48:04,VALID,1003.27,VALID,0,VALID,88.0296,VALID,0,VALID,25.8473,VALID,338,VALID,0.715234,
2010-03-16, 00:49:04,VALID,1003.25,VALID,0,VALID,88.1365,VALID,0,VALID,25.8259,VALID,333,VALID,0.404297,
2010-03-16, 00:50:04,VALID,1003.24,VALID,0,VALID,88.2051,VALID,0,VALID,25.8064,VALID,343,VALID,0.856641,
2010-03-16, 00:51:04,VALID,1003.24,VALID,0,VALID,88.2433,VALID,0,VALID,25.8064,VALID,309,VALID,0.447266,
2010-03-16, 00:52:04,VALID,1003.22,VALID,0,VALID,88.2814,VALID,0,VALID,25.8064,VALID,351,VALID,0.274609,
2010-03-16, 00:53:04,VALID,1003.2,VALID,0,VALID,88.2738,VALID,0,VALID,25.8064,VALID,323,VALID,0.364844,
2010-03-16, 00:54:04,VALID,1003.21,VALID,0,VALID,88.2356,VALID,0,VALID,25.7869,VALID,322,VALID,0.113281,
2010-03-16, 00:55:04,VALID,1003.21,VALID,0,VALID,88.1517,VALID,0,VALID,25.8064,VALID,345,VALID,0.526953,
2010-03-16, 00:56:04,VALID,1003.2,VALID,0,VALID,88.0754,VALID,0,VALID,25.7869,VALID,326,VALID,0.755859,
2010-03-16, 00:57:04,VALID,1003.18,VALID,0,VALID,88.1288,VALID,0,VALID,25.785,VALID,250,VALID,0.298047,
2010-03-16, 00:58:04,VALID,1003.12,VALID,0,VALID,88.1136,VALID,0,VALID,25.7869,VALID,336,VALID,0.502344,
2010-03-16, 00:59:04,VALID,1003.15,VALID,0,VALID,88.0144,VALID,0,VALID,25.7869,VALID,335,VALID,0.221094,
2010-03-16, 01:00:04,VALID,1003.15,VALID,0,VALID,88.0068,VALID,0,VALID,25.7674,VALID,346,VALID,0.527734,
2010-03-16, 01:01:04,VALID,1003.16,VALID,0,VALID,88.0831,VALID,0,VALID,25.7265,VALID,339,VALID,0.473437,
2010-03-16, 01:02:04,VALID,1003.13,VALID,0,VALID,88.0373,VALID,0,VALID,25.7265,VALID,349,VALID,1.08672,
2010-03-16, 01:03:04,VALID,1003.1,VALID,0,VALID,87.9991,VALID,0,VALID,25.748,VALID,333,VALID,0.342969,
2010-03-16, 01:04:04,VALID,1003.09,VALID,0,VALID,87.9534,VALID,0,VALID,25.748,VALID,334,VALID,0.255078,
2010-03-16, 01:05:04,VALID,1003.05,VALID,0,VALID,88.1059,VALID,0,VALID,25.748,VALID,331,VALID,0.232812,
2010-03-16, 01:06:04,VALID,1003.01,VALID,0,VALID,88.1136,VALID,0,VALID,25.748,VALID,337,VALID,0.302734,
2010-03-16, 01:07:04,VALID,1002.98,VALID,0,VALID,88.1441,VALID,0,VALID,25.748,VALID,325,VALID,0.277734,
2010-03-16, 01:08:04,VALID,1003,VALID,0,VALID,88.1288,VALID,0,VALID,25.748,VALID,339,VALID,0.545313,
2010-03-16, 01:09:04,VALID,1002.94,VALID,0,VALID,88.1365,VALID,0,VALID,25.746,VALID,324,VALID,0.823828,
2010-03-16, 01:10:04,VALID,1002.98,VALID,0,VALID,88.1288,VALID,0,VALID,25.7869,VALID,341,VALID,0.257422,
2010-03-16, 01:11:04,VALID,1002.96,VALID,0,VALID,88.1136,VALID,0,VALID,25.8064,VALID,322,VALID,0.258984,
2010-03-16, 01:12:04,VALID,1002.97,VALID,0,VALID,88.0907,VALID,0,VALID,25.8259,VALID,329,VALID,0.303125,
2010-03-16, 01:13:04,VALID,1002.94,VALID,0,VALID,88.0602,VALID,0,VALID,25.8259,VALID,357,VALID,0.351953,
2010-03-16, 01:14:04,VALID,1002.92,VALID,0,VALID,88.1288,VALID,0,VALID,25.8648,VALID,358,VALID,0.478125,
2010-03-16, 01:15:04,VALID,1002.92,VALID,0,VALID,87.9152,VALID,0,VALID,25.8648,VALID,287,VALID,0.686328,
2010-03-16, 01:16:04,VALID,1002.9,VALID,0,VALID,87.8008,VALID,0,VALID,25.8629,VALID,288,VALID,0.696875,
2010-03-16, 01:17:04,VALID,1002.91,VALID,0,VALID,87.7169,VALID,0,VALID,25.9232,VALID,274,VALID,0.489453,
2010-03-16, 01:18:04,VALID,1002.92,VALID,0,VALID,87.6863,VALID,0,VALID,25.9427,VALID,274,VALID,0.275781,
2010-03-16, 01:19:04,VALID,1002.9,VALID,0,VALID,87.6558,VALID,0,VALID,25.9427,VALID,320,VALID,0.144141,
2010-03-16, 01:20:04,VALID,1002.85,VALID,0,VALID,87.6635,VALID,0,VALID,25.9427,VALID,343,VALID,0.619141,
2010-03-16, 01:21:04,VALID,1002.83,VALID,0,VALID,87.6482,VALID,0,VALID,25.9232,VALID,294,VALID,0.373047,
2010-03-16, 01:22:04,VALID,1002.82,VALID,0,VALID,87.7169,VALID,0,VALID,25.9232,VALID,294,VALID,0.2625,
2010-03-16, 01:23:04,VALID,1002.78,VALID,0,VALID,87.7626,VALID,0,VALID,25.9038,VALID,298,VALID,0.229297,
2010-03-16, 01:24:04,VALID,1002.76,VALID,0,VALID,87.7855,VALID,0,VALID,25.9038,VALID,298,VALID,0,
2010-03-16, 01:25:04,VALID,1002.74,VALID,0,VALID,87.9,VALID,0,VALID,25.9038,VALID,297,VALID,0,
2010-03-16, 01:26:04,VALID,1002.72,VALID,0,VALID,87.9686,VALID,0,VALID,25.8629,VALID,297,VALID,0.0582031,
2010-03-16, 01:27:04,VALID,1002.72,VALID,0,VALID,88.1136,VALID,0,VALID,25.8648,VALID,333,VALID,0.482812,
2010-03-16, 01:28:04,VALID,1002.71,VALID,0,VALID,88.1746,VALID,0,VALID,25.8648,VALID,325,VALID,0.305469,
2010-03-16, 01:29:04,VALID,1002.71,VALID,0,VALID,88.2204,VALID,0,VALID,25.8434,VALID,329,VALID,0.151953,
2010-03-16, 01:30:04,VALID,1002.68,VALID,0,VALID,88.2051,VALID,0,VALID,25.8259,VALID,329,VALID,0.159375,
2010-03-16, 01:31:04,VALID,1002.69,VALID,0,VALID,88.3272,VALID,0,VALID,25.8239,VALID,321,VALID,0.289453,
2010-03-16, 01:32:04,VALID,1002.67,VALID,0,VALID,88.4416,VALID,0,VALID,25.8259,VALID,315,VALID,0.576172,
2010-03-16, 01:33:04,VALID,1002.68,VALID,0,VALID,88.4645,VALID,0,VALID,25.8259,VALID,289,VALID,0.590625,
2010-03-16, 01:34:04,VALID,1002.66,VALID,0,VALID,88.4111,VALID,0,VALID,25.8453,VALID,284,VALID,0.955469,
2010-03-16, 01:35:04,VALID,1002.63,VALID,0,VALID,88.3119,VALID,0,VALID,25.8648,VALID,343,VALID,0.423438,
2010-03-16, 01:36:04,VALID,1002.6,VALID,0,VALID,88.2738,VALID,0,VALID,25.8843,VALID,343,VALID,0.164063,
2010-03-16, 01:37:04,VALID,1002.59,VALID,0,VALID,88.2433,VALID,0,VALID,25.8843,VALID,331,VALID,0.166797,
2010-03-16, 01:38:04,VALID,1002.55,VALID,0,VALID,88.3195,VALID,0,VALID,25.8629,VALID,353,VALID,0.846875,
2010-03-16, 01:39:04,VALID,1002.55,VALID,0,VALID,88.3424,VALID,0,VALID,25.8843,VALID,277,VALID,0.696484,
2010-03-16, 01:40:04,VALID,1002.55,VALID,0,VALID,88.2967,VALID,0,VALID,25.8434,VALID,339,VALID,0.478906,
2010-03-16, 01:41:04,VALID,1002.53,VALID,0,VALID,88.3501,VALID,0,VALID,25.8629,VALID,346,VALID,0.576172,
2010-03-16, 01:42:04,VALID,1002.51,VALID,0,VALID,88.3119,VALID,0,VALID,25.8648,VALID,332,VALID,0.850391,
2010-03-16, 01:43:04,VALID,1002.52,VALID,0,VALID,88.3424,VALID,0,VALID,25.8648,VALID,345,VALID,0.404297,
2010-03-16, 01:44:04,VALID,1002.55,VALID,0,VALID,88.4187,VALID,0,VALID,25.8648,VALID,351,VALID,0.938281,
2010-03-16, 01:45:04,VALID,1002.55,VALID,0,VALID,88.4645,VALID,0,VALID,25.8453,VALID,344,VALID,0.554297,
2010-03-16, 01:46:04,VALID,1002.57,VALID,0,VALID,88.4416,VALID,0,VALID,25.8453,VALID,331,VALID,0.217969,
2010-03-16, 01:47:04,VALID,1002.55,VALID,0,VALID,88.4798,VALID,0,VALID,25.8453,VALID,340,VALID,0.270703,
2010-03-16, 01:48:04,VALID,1002.54,VALID,0,VALID,88.4721,VALID,0,VALID,25.8453,VALID,347,VALID,0.225781,
2010-03-16, 01:49:04,VALID,1002.58,VALID,0,VALID,88.495,VALID,0,VALID,25.8453,VALID,343,VALID,0.500781,
2010-03-16, 01:50:04,VALID,1002.55,VALID,0,VALID,88.5637,VALID,0,VALID,25.8044,VALID,275,VALID,0.223828,
2010-03-16, 01:51:04,VALID,1002.58,VALID,0,VALID,88.6094,VALID,0,VALID,25.8044,VALID,331,VALID,0.812891,
2010-03-16, 01:52:04,VALID,1002.56,VALID,0,VALID,88.5942,VALID,0,VALID,25.8259,VALID,327,VALID,0.953516,
2010-03-16, 01:53:04,VALID,1002.54,VALID,0,VALID,88.6171,VALID,0,VALID,25.8453,VALID,273,VALID,0.795703,
2010-03-16, 01:54:04,VALID,1002.56,VALID,0,VALID,88.5637,VALID,0,VALID,25.8239,VALID,358,VALID,0.18125,
2010-03-16, 01:55:04,VALID,1002.53,VALID,0,VALID,88.5713,VALID,0,VALID,25.8453,VALID,290,VALID,0.694141,
2010-03-16, 01:56:04,VALID,1002.51,VALID,0,VALID,88.5942,VALID,0,VALID,25.8259,VALID,294,VALID,1.00273,
2010-03-16, 01:57:04,VALID,1002.53,VALID,0,VALID,88.5866,VALID,0,VALID,25.8064,VALID,299,VALID,0.230469,
2010-03-16, 01:58:04,VALID,1002.48,VALID,0,VALID,88.64,VALID,0,VALID,25.8064,VALID,275,VALID,0.604688,
2010-03-16, 01:59:04,VALID,1002.48,VALID,0,VALID,88.6705,VALID,0,VALID,25.8064,VALID,4,VALID,0.687891,
2010-03-16, 02:00:04,VALID,1002.48,VALID,0,VALID,88.6552,VALID,0,VALID,25.7869,VALID,298,VALID,0.361719,
2010-03-16, 02:01:04,VALID,1002.46,VALID,0,VALID,88.7544,VALID,0,VALID,25.7869,VALID,325,VALID,0.678906,
2010-03-16, 02:02:04,VALID,1002.46,VALID,0,VALID,88.762,VALID,0,VALID,25.7674,VALID,329,VALID,0.348047,
2010-03-16, 02:03:04,VALID,1002.46,VALID,0,VALID,88.7925,VALID,0,VALID,25.7674,VALID,329,VALID,0.404687,
2010-03-16, 02:04:04,VALID,1002.47,VALID,0,VALID,88.8307,VALID,0,VALID,25.748,VALID,259,VALID,1.01992,
2010-03-16, 02:05:04,VALID,1002.48,VALID,0,VALID,88.8765,VALID,0,VALID,25.7285,VALID,269,VALID,0.286719,
2010-03-16, 02:06:04,VALID,1002.46,VALID,0,VALID,88.9299,VALID,0,VALID,25.709,VALID,324,VALID,0.467578,
2010-03-16, 02:07:04,VALID,1002.43,VALID,0,VALID,88.9451,VALID,0,VALID,25.709,VALID,332,VALID,0.678125,
2010-03-16, 02:08:04,VALID,1002.41,VALID,0,VALID,88.9299,VALID,0,VALID,25.6895,VALID,341,VALID,0.789063,
2010-03-16, 02:09:04,VALID,1002.38,VALID,0,VALID,88.9222,VALID,0,VALID,25.6895,VALID,11,VALID,0.618359,
2010-03-16, 02:10:04,VALID,1002.33,VALID,0,VALID,88.8459,VALID,0,VALID,25.6506,VALID,359,VALID,0.794531,
2010-03-16, 02:11:04,VALID,1002.3,VALID,0,VALID,88.8612,VALID,0,VALID,25.6506,VALID,353,VALID,0.819531,
2010-03-16, 02:12:04,VALID,1002.31,VALID,0,VALID,88.8536,VALID,0,VALID,25.6506,VALID,340,VALID,1.12656,
2010-03-16, 02:13:04,VALID,1002.27,VALID,0,VALID,88.8765,VALID,0,VALID,25.6311,VALID,1,VALID,0.5375,
2010-03-16, 02:14:04,VALID,1002.27,VALID,0,VALID,88.9299,VALID,0,VALID,25.6116,VALID,344,VALID,0.654688,
2010-03-16, 02:15:04,VALID,1002.27,VALID,0,VALID,88.8917,VALID,0,VALID,25.6116,VALID,2,VALID,0.930859,
2010-03-16, 02:16:04,VALID,1002.26,VALID,0,VALID,88.9604,VALID,0,VALID,25.6116,VALID,333,VALID,0.403516,
2010-03-16, 02:17:04,VALID,1002.27,VALID,0,VALID,89.0061,VALID,0,VALID,25.6116,VALID,292,VALID,0.365625,
2010-03-16, 02:18:04,VALID,1002.29,VALID,0,VALID,88.9833,VALID,0,VALID,25.6116,VALID,7,VALID,0.448047,
2010-03-16, 02:19:04,VALID,1002.26,VALID,0,VALID,88.9604,VALID,0,VALID,25.5902,VALID,359,VALID,0.0859375,
2010-03-16, 02:20:04,VALID,1002.24,VALID,0,VALID,89.0061,VALID,0,VALID,25.6116,VALID,312,VALID,0.472656,
2010-03-16, 02:21:04,VALID,1002.2,VALID,0,VALID,88.8765,VALID,0,VALID,25.6116,VALID,324,VALID,0.473437,
2010-03-16, 02:22:04,VALID,1002.18,VALID,0,VALID,88.8078,VALID,0,VALID,25.6116,VALID,356,VALID,0.692578,
2010-03-16, 02:23:04,VALID,1002.14,VALID,0,VALID,88.7086,VALID,0,VALID,25.5902,VALID,334,VALID,0.420312,
2010-03-16, 02:24:04,VALID,1002.14,VALID,0,VALID,88.6857,VALID,0,VALID,25.6311,VALID,354,VALID,0.520703,
2010-03-16, 02:25:04,VALID,1002.08,VALID,0,VALID,88.556,VALID,0,VALID,25.6311,VALID,344,VALID,0.741016,
2010-03-16, 02:26:04,VALID,1002.12,VALID,0,VALID,88.4416,VALID,0,VALID,25.6311,VALID,352,VALID,0.91875,
2010-03-16, 02:27:04,VALID,1002.17,VALID,0,VALID,88.4035,VALID,0,VALID,25.6292,VALID,283,VALID,0.573828,
2010-03-16, 02:28:04,VALID,1002.2,VALID,0,VALID,88.4035,VALID,0,VALID,25.6506,VALID,283,VALID,0.161719,
2010-03-16, 02:29:04,VALID,1002.24,VALID,0,VALID,88.3043,VALID,0,VALID,25.67,VALID,334,VALID,0.861328,
2010-03-16, 02:30:04,VALID,1002.25,VALID,0,VALID,88.1975,VALID,0,VALID,25.6895,VALID,288,VALID,0.646484,
2010-03-16, 02:31:04,VALID,1002.26,VALID,0,VALID,88.1822,VALID,0,VALID,25.6681,VALID,257,VALID,0.185547,
2010-03-16, 02:32:04,VALID,1002.27,VALID,0,VALID,87.961,VALID,0,VALID,25.7109,VALID,295,VALID,0.808594,
2010-03-16, 02:33:04,VALID,1002.23,VALID,0,VALID,87.7779,VALID,0,VALID,25.7071,VALID,303,VALID,0.442578,
2010-03-16, 02:34:04,VALID,1002.28,VALID,0,VALID,87.6711,VALID,0,VALID,25.7285,VALID,285,VALID,0.190234,
2010-03-16, 02:35:04,VALID,1002.27,VALID,0,VALID,87.6177,VALID,0,VALID,25.748,VALID,282,VALID,0.367969,
2010-03-16, 02:36:04,VALID,1002.29,VALID,0,VALID,87.5872,VALID,0,VALID,25.7265,VALID,281,VALID,0.820313,
2010-03-16, 02:37:04,VALID,1002.29,VALID,0,VALID,87.4727,VALID,0,VALID,25.746,VALID,278,VALID,1.15156,
2010-03-16, 02:38:04,VALID,1002.3,VALID,0,VALID,87.4041,VALID,0,VALID,25.7674,VALID,343,VALID,0.255859,
2010-03-16, 02:39:04,VALID,1002.31,VALID,0,VALID,87.3659,VALID,0,VALID,25.7674,VALID,343,VALID,0,
2010-03-16, 02:40:04,VALID,1002.32,VALID,0,VALID,87.3659,VALID,0,VALID,25.7674,VALID,342,VALID,0.379297,
2010-03-16, 02:41:04,VALID,1002.32,VALID,0,VALID,87.3583,VALID,0,VALID,25.746,VALID,317,VALID,0.337109,
2010-03-16, 02:42:04,VALID,1002.36,VALID,0,VALID,87.4575,VALID,0,VALID,25.7265,VALID,317,VALID,0.146094,
2010-03-16, 02:43:04,VALID,1002.39,VALID,0,VALID,87.5033,VALID,0,VALID,25.7071,VALID,317,VALID,0.126953,
2010-03-16, 02:44:04,VALID,1002.42,VALID,0,VALID,87.549,VALID,0,VALID,25.6876,VALID,317,VALID,0,
2010-03-16, 02:45:04,VALID,1002.43,VALID,0,VALID,87.6787,VALID,0,VALID,25.6895,VALID,317,VALID,0,
2010-03-16, 02:46:05,VALID,1002.45,VALID,0,VALID,87.9076,VALID,0,VALID,25.6097,VALID,316,VALID,0.0242187,
2010-03-16, 02:47:05,VALID,1002.46,VALID,0,VALID,88.0678,VALID,0,VALID,25.6311,VALID,316,VALID,0.0191406,
2010-03-16, 02:48:05,VALID,1002.46,VALID,0,VALID,88.1517,VALID,0,VALID,25.5707,VALID,314,VALID,0.315625,
2010-03-16, 02:49:05,VALID,1002.44,VALID,0,VALID,88.1746,VALID,0,VALID,25.5513,VALID,306,VALID,0.59375,
2010-03-16, 02:50:05,VALID,1002.42,VALID,0,VALID,88.167,VALID,0,VALID,25.5707,VALID,303,VALID,0.222266,
2010-03-16, 02:51:05,VALID,1002.43,VALID,0,VALID,88.1899,VALID,0,VALID,25.5727,VALID,303,VALID,0.413281,
2010-03-16, 02:52:05,VALID,1002.44,VALID,0,VALID,88.1059,VALID,0,VALID,25.5727,VALID,334,VALID,0.263281,
2010-03-16, 02:53:05,VALID,1002.42,VALID,0,VALID,88.0907,VALID,0,VALID,25.5727,VALID,332,VALID,0.273047,
2010-03-16, 02:54:05,VALID,1002.44,VALID,0,VALID,88.1899,VALID,0,VALID,25.5532,VALID,277,VALID,0.339453,
2010-03-16, 02:55:05,VALID,1002.42,VALID,0,VALID,88.1593,VALID,0,VALID,25.5532,VALID,284,VALID,0.352734,
2010-03-16, 02:56:05,VALID,1002.39,VALID,0,VALID,88.1212,VALID,0,VALID,25.5123,VALID,322,VALID,0.391016,
2010-03-16, 02:57:05,VALID,1002.34,VALID,0,VALID,88.1899,VALID,0,VALID,25.4928,VALID,322,VALID,0.360156,
2010-03-16, 02:58:05,VALID,1002.36,VALID,0,VALID,88.228,VALID,0,VALID,25.4948,VALID,325,VALID,0.487109,
2010-03-16, 02:59:05,VALID,1002.32,VALID,0,VALID,88.2661,VALID,0,VALID,25.4753,VALID,325,VALID,0.499219,
2010-03-16, 03:00:05,VALID,1002.31,VALID,0,VALID,88.3119,VALID,0,VALID,25.4344,VALID,359,VALID,0.718359,
2010-03-16, 03:01:05,VALID,1002.34,VALID,0,VALID,88.3729,VALID,0,VALID,25.4363,VALID,359,VALID,0.345313,
2010-03-16, 03:02:05,VALID,1002.31,VALID,0,VALID,88.4721,VALID,0,VALID,25.4363,VALID,357,VALID,0.154297,
2010-03-16, 03:03:05,VALID,1002.32,VALID,0,VALID,88.495,VALID,0,VALID,25.4169,VALID,355,VALID,0.661328,
2010-03-16, 03:04:05,VALID,1002.33,VALID,0,VALID,88.6552,VALID,0,VALID,25.337,VALID,347,VALID,0.657031,
2010-03-16, 03:05:05,VALID,1002.35,VALID,0,VALID,88.8459,VALID,0,VALID,25.3584,VALID,337,VALID,0.0890625,
2010-03-16, 03:06:05,VALID,1002.37,VALID,0,VALID,89.0061,VALID,0,VALID,25.3195,VALID,337,VALID,0.196484,
2010-03-16, 03:07:05,VALID,1002.35,VALID,0,VALID,89.1358,VALID,0,VALID,25.2786,VALID,316,VALID,0.316016,
2010-03-16, 03:08:05,VALID,1002.32,VALID,0,VALID,89.1816,VALID,0,VALID,25.2786,VALID,318,VALID,0.11875,
2010-03-16, 03:09:05,VALID,1002.31,VALID,0,VALID,89.1664,VALID,0,VALID,25.2981,VALID,318,VALID,0.182812,
2010-03-16, 03:10:05,VALID,1002.28,VALID,0,VALID,89.029,VALID,0,VALID,25.2981,VALID,337,VALID,0.310547,
2010-03-16, 03:11:05,VALID,1002.23,VALID,0,VALID,88.9833,VALID,0,VALID,25.3,VALID,337,VALID,0.266016,
2010-03-16, 03:12:05,VALID,1002.19,VALID,0,VALID,88.9604,VALID,0,VALID,25.2981,VALID,338,VALID,0.549609,
2010-03-16, 03:13:05,VALID,1002.18,VALID,0,VALID,88.9604,VALID,0,VALID,25.2981,VALID,339,VALID,0.028125,
2010-03-16, 03:14:05,VALID,1002.16,VALID,0,VALID,88.9222,VALID,0,VALID,25.3176,VALID,345,VALID,0.545703,
2010-03-16, 03:15:05,VALID,1002.16,VALID,0,VALID,88.9299,VALID,0,VALID,25.3176,VALID,346,VALID,0.2875,
2010-03-16, 03:16:05,VALID,1002.13,VALID,0,VALID,88.8841,VALID,0,VALID,25.339,VALID,3,VALID,0.454688,
2010-03-16, 03:17:05,VALID,1002.1,VALID,0,VALID,88.8841,VALID,0,VALID,25.339,VALID,3,VALID,0.0308594,
2010-03-16, 03:18:05,VALID,1002.07,VALID,0,VALID,88.8688,VALID,0,VALID,25.3176,VALID,342,VALID,0.318359,
2010-03-16, 03:19:05,VALID,1002.05,VALID,0,VALID,88.9222,VALID,0,VALID,25.3176,VALID,315,VALID,0.100781,
2010-03-16, 03:20:05,VALID,1002.06,VALID,0,VALID,88.9146,VALID,0,VALID,25.3176,VALID,312,VALID,0.421875,
2010-03-16, 03:21:05,VALID,1002.03,VALID,0,VALID,88.8231,VALID,0,VALID,25.337,VALID,322,VALID,0.100781,
2010-03-16, 03:22:05,VALID,1002.02,VALID,0,VALID,88.8154,VALID,0,VALID,25.337,VALID,313,VALID,0.630078,
2010-03-16, 03:23:05,VALID,1002.02,VALID,0,VALID,88.8612,VALID,0,VALID,25.3565,VALID,312,VALID,0.340234,
2010-03-16, 03:24:05,VALID,1002.01,VALID,0,VALID,88.7773,VALID,0,VALID,25.4169,VALID,301,VALID,0.616016,
2010-03-16, 03:25:05,VALID,1002,VALID,0,VALID,88.6857,VALID,0,VALID,25.4169,VALID,323,VALID,0.33125,
2010-03-16, 03:26:05,VALID,1002.03,VALID,0,VALID,88.5713,VALID,0,VALID,25.4363,VALID,287,VALID,0.266406,
2010-03-16, 03:27:05,VALID,1002.03,VALID,0,VALID,88.5026,VALID,0,VALID,25.4344,VALID,9,VALID,0.418359,
2010-03-16, 03:28:05,VALID,1001.98,VALID,0,VALID,88.4492,VALID,0,VALID,25.4344,VALID,350,VALID,0.557422,
2010-03-16, 03:29:05,VALID,1001.98,VALID,0,VALID,88.4416,VALID,0,VALID,25.4539,VALID,336,VALID,0.527344,
2010-03-16, 03:30:05,VALID,1001.97,VALID,0,VALID,88.4874,VALID,0,VALID,25.4539,VALID,348,VALID,0.572656,
2010-03-16, 03:31:05,VALID,1002,VALID,0,VALID,88.4569,VALID,0,VALID,25.4539,VALID,342,VALID,0.117188,
2010-03-16, 03:32:05,VALID,1001.99,VALID,0,VALID,88.4798,VALID,0,VALID,25.4753,VALID,294,VALID,0.112109,
2010-03-16, 03:33:05,VALID,1002.02,VALID,0,VALID,88.5103,VALID,0,VALID,25.4539,VALID,294,VALID,0.223828,
2010-03-16, 03:34:05,VALID,1001.99,VALID,0,VALID,88.5866,VALID,0,VALID,25.4539,VALID,301,VALID,0.269141,
2010-03-16, 03:35:05,VALID,1002.01,VALID,0,VALID,88.5866,VALID,0,VALID,25.4325,VALID,347,VALID,0.150781,
2010-03-16, 03:36:05,VALID,1002.01,VALID,0,VALID,88.5789,VALID,0,VALID,25.4734,VALID,297,VALID,0.210547,
2010-03-16, 03:37:05,VALID,1002.01,VALID,0,VALID,88.6018,VALID,0,VALID,25.4967,VALID,320,VALID,0.180859,
2010-03-16, 03:38:05,VALID,1002.02,VALID,0,VALID,88.5637,VALID,0,VALID,25.4539,VALID,315,VALID,0.546484,
2010-03-16, 03:39:05,VALID,1001.98,VALID,0,VALID,88.4874,VALID,0,VALID,25.4734,VALID,329,VALID,0.339844,
2010-03-16, 03:40:05,VALID,1001.93,VALID,0,VALID,88.3958,VALID,0,VALID,25.4948,VALID,304,VALID,0.23125,
2010-03-16, 03:41:05,VALID,1001.93,VALID,0,VALID,88.289,VALID,0,VALID,25.5142,VALID,353,VALID,0.355469,
2010-03-16, 03:42:05,VALID,1001.91,VALID,0,VALID,88.3043,VALID,0,VALID,25.5142,VALID,348,VALID,0.353125,
2010-03-16, 03:43:05,VALID,1001.94,VALID,0,VALID,88.2814,VALID,0,VALID,25.4928,VALID,293,VALID,0.312109,
2010-03-16, 03:44:05,VALID,1001.93,VALID,0,VALID,88.2509,VALID,0,VALID,25.5142,VALID,279,VALID,0.43125,